Weather History for Ypsilanti, MI

Change the Weather History Date:

Tuesday, July 2, 2013

  Actual Average Record
Temperature  
Mean Temperature 70 °F -  
Max Temperature 78 °F 82 °F 100 °F (2011)
Min Temperature 62 °F 61 °F 42 °F (2001)
Cooling Degree Days 5    
Growing Degree Days 20 (Base 50)    
Moisture  
Dew Point 58 °F    
Average Humidity 69    
Maximum Humidity 81    
Minimum Humidity 56    
Precipitation  
Precipitation 0.00 in - - ()
Sea Level Pressure  
Sea Level Pressure 30.04 in    
Wind  
Wind Speed 8 mph (ENE)    
Max Wind Speed 12 mph    
Max Gust Speed -    
Visibility 10 miles    
Events Rain    
Averages and records for this station are not official NWS values.
T = Trace of Precipitation, MM = Missing Value Source: NWS Daily Summary

Daily Weather History Graph

Daily Weather History Graph

Search for Another Location

Airport:

Trip Planner

Search our weather history database for the weather conditions in past years. The results will help you decide how hot, cold, wet, or windy it might be!

Date:

Astronomy

Jul. 02, 2013 Rise Set
Actual Time 6:02 AM EDT 9:14 PM EDT
Civil Twilight 5:27 AM EDT 9:48 PM EDT
Nautical Twilight 4:43 AM EDT 10:32 PM EDT
Astronomical Twilight 3:49 AM EDT 11:25 PM EDT
Moon 2:07 AM EDT (7/2) 4:24 PM EDT (7/2)
Length of Visible Light 16h 20m
Length of Day
15h 11m
Waning Crescent, 26% of the Moon is Illuminated
Jul 2
Waning Crescent
Jul 8
New
Jul 15
First Quarter
Jul 22
Full
Jul 29
Last Quarter

Hourly Weather History & Observations

Time (EDT) Temp. Dew Point Humidity Pressure Visibility Wind Dir Wind Speed Gust Speed Precip Events Conditions
12:53 AM 63.0 °F 55.0 °F 75% 30.04 in 10.0 mi NNE 9.2 mph - N/A   Overcast
1:53 AM 63.0 °F 55.0 °F 75% 30.04 in 10.0 mi NNE 10.4 mph - N/A   Overcast
2:53 AM 64.0 °F 55.0 °F 73% 30.03 in 10.0 mi NNE 9.2 mph - N/A   Overcast
3:04 AM 64.4 °F 55.4 °F 73% 30.03 in 10.0 mi NNE 11.5 mph - N/A   Overcast
3:12 AM 64.4 °F 55.4 °F 73% 30.03 in 10.0 mi NNE 9.2 mph - N/A   Overcast
3:53 AM 63.0 °F 55.0 °F 75% 30.03 in 10.0 mi NNE 6.9 mph - 0.00 in Rain Light Rain
4:46 AM 62.6 °F 55.4 °F 77% 30.03 in 10.0 mi NNE 6.9 mph - 0.00 in Rain Light Rain
4:53 AM 63.0 °F 55.9 °F 78% 30.02 in 10.0 mi NNE 6.9 mph - 0.00 in Rain Light Rain
5:05 AM 62.6 °F 55.4 °F 77% 30.03 in 10.0 mi NNE 8.1 mph - 0.00 in Rain Light Rain
5:53 AM 64.0 °F 57.0 °F 78% 30.03 in 10.0 mi North 5.8 mph - 0.00 in   Overcast
6:53 AM 64.0 °F 57.0 °F 78% 30.04 in 10.0 mi NNE 6.9 mph - N/A   Overcast
7:53 AM 66.0 °F 57.0 °F 73% 30.04 in 10.0 mi NE 8.1 mph - N/A   Overcast
8:53 AM 66.9 °F 57.0 °F 70% 30.05 in 10.0 mi NE 6.9 mph - N/A   Overcast
10:53 AM 69.1 °F 57.0 °F 65% 30.06 in 10.0 mi ENE 9.2 mph - N/A   Overcast
11:53 AM 71.1 °F 57.9 °F 63% 30.07 in 10.0 mi ENE 4.6 mph - N/A   Overcast
12:53 PM 72.0 °F 57.9 °F 61% 30.07 in 10.0 mi East 6.9 mph - N/A   Overcast
1:53 PM 75.9 °F 60.1 °F 58% 30.05 in 10.0 mi ENE 8.1 mph - N/A   Mostly Cloudy
2:53 PM 75.0 °F 60.1 °F 60% 30.04 in 10.0 mi ESE 9.2 mph - N/A   Overcast
3:53 PM 75.9 °F 60.1 °F 58% 30.04 in 10.0 mi ESE 6.9 mph - N/A   Overcast
4:17 PM 77.0 °F 60.8 °F 57% 30.05 in 10.0 mi ESE 8.1 mph - N/A   Overcast
4:53 PM 75.9 °F 60.1 °F 58% 30.04 in 10.0 mi East 8.1 mph - N/A   Overcast
5:53 PM 75.9 °F 60.1 °F 58% 30.04 in 10.0 mi ESE 5.8 mph - N/A   Overcast
6:53 PM 78.1 °F 61.0 °F 56% 30.03 in 10.0 mi NE 9.2 mph - N/A   Clear
7:53 PM 75.0 °F 61.0 °F 62% 30.04 in 10.0 mi East 6.9 mph - N/A   Clear
8:53 PM 72.0 °F 60.1 °F 66% 30.04 in 10.0 mi East 6.9 mph - N/A   Clear
9:53 PM 69.1 °F 60.1 °F 73% 30.05 in 10.0 mi ENE 5.8 mph - N/A   Clear
10:53 PM 66.9 °F 60.1 °F 79% 30.08 in 10.0 mi Calm Calm - N/A   Partly Cloudy
11:53 PM 66.0 °F 60.1 °F 81% 30.07 in 10.0 mi ESE 3.5 mph - N/A   Mostly Cloudy